Weather History for KPKB - December, 2011

Change the Weather History Date:

Sunday, December 4, 2011

  Actual Average Record
Temperature  
Mean Temperature 54 °F 38 °F  
Max Temperature 65 °F 47 °F 72 °F (1982)
Min Temperature 42 °F 30 °F 10 °F (1966)
Degree Days  
Heating Degree Days 11 27  
Month to date heating degree days 93 105  
Cooling Degree Days 0 0  
Month to date cooling degree days 0 0  
Year to date cooling degree days 1101 955  
Growing Degree Days 4 (Base 50)    
Moisture  
Dew Point 28 °F    
Average Humidity 41    
Maximum Humidity 53    
Minimum Humidity 28    
Precipitation  
Precipitation 0.00 in 0.10 in 0.87 in (1978)
Month to date precipitation 0.00 0.42  
Year to date precipitation 54.44 38.51  
Sea Level Pressure  
Sea Level Pressure 30.29 in    
Wind  
Wind Speed 7 mph (SSE)    
Max Wind Speed 16 mph    
Max Gust Speed 23 mph    
Visibility 10 miles    
Events      
T = Trace of Precipitation, MM = Missing Value Source: NWS Daily Summary

Daily Weather History Graph

Daily Weather History Graph

Search for Another Location

Airport or City:

Trip Planner

Search our weather history database for the weather conditions in past years. The results will help you decide how hot, cold, wet, or windy it might be!

Date:

Astronomy

Dec. 04, 2011 Rise Set
Actual Time 7:29 AM EST 5:02 PM EST
Civil Twilight 6:59 AM EST 5:32 PM EST
Nautical Twilight 6:26 AM EST 6:05 PM EST
Astronomical Twilight 5:53 AM EST 6:38 PM EST
Moon 1:30 PM EST (12/4) 1:54 AM EST (12/4)
Length of Visible Light 10h 32m
Length of Day
9h 33m
Waxing Gibbous, 71% of the Moon is Illuminated
Dec 4
Waxing Gibbous
Dec 10
Full
Dec 17
Last Quarter
Dec 24
New
Jan 1
First Quarter

Hourly Weather History & Observations

Time (EST) Temp. Windchill Dew Point Humidity Pressure Visibility Wind Dir Wind Speed Gust Speed Precip Events Conditions
12:53 AM 46.0 °F 43.9 °F 28.0 °F 50% 30.35 in 10.0 mi SSE 4.6 mph - N/A   Clear
1:53 AM 44.1 °F 42.5 °F 28.0 °F 53% 30.34 in 10.0 mi SE 3.5 mph - N/A   Clear
2:53 AM 44.1 °F 40.8 °F 27.0 °F 51% 30.34 in 10.0 mi SSE 5.8 mph - N/A   Clear
3:53 AM 43.0 °F 40.3 °F 26.1 °F 51% 30.33 in 10.0 mi SSE 4.6 mph - N/A   Clear
4:53 AM 43.0 °F 39.5 °F 26.1 °F 51% 30.32 in 10.0 mi SSE 5.8 mph - N/A   Clear
5:53 AM 44.1 °F 40.1 °F 26.1 °F 49% 30.32 in 10.0 mi SSE 6.9 mph - N/A   Clear
6:53 AM 45.0 °F 40.1 °F 26.1 °F 48% 30.32 in 10.0 mi South 9.2 mph - N/A   Clear
7:53 AM 44.1 °F 40.8 °F 26.1 °F 49% 30.33 in 10.0 mi South 5.8 mph - N/A   Clear
8:53 AM 44.1 °F 40.8 °F 27.0 °F 51% 30.35 in 10.0 mi SSE 5.8 mph - N/A   Clear
9:53 AM 50.0 °F - 27.0 °F 41% 30.35 in 10.0 mi South 10.4 mph - N/A   Clear
10:53 AM 54.0 °F - 26.1 °F 34% 30.33 in 10.0 mi South 8.1 mph - N/A   Clear
11:53 AM 60.1 °F - 28.0 °F 30% 30.30 in 10.0 mi SSW 10.4 mph 20.7 mph N/A   Scattered Clouds
12:53 PM 61.0 °F - 28.0 °F 29% 30.27 in 10.0 mi South 12.7 mph 20.7 mph N/A   Scattered Clouds
1:53 PM 63.0 °F - 30.0 °F 29% 30.26 in 10.0 mi SSW 8.1 mph - N/A   Clear
2:53 PM 64.0 °F - 32.0 °F 30% 30.25 in 10.0 mi South 9.2 mph - N/A   Clear
3:53 PM 63.0 °F - 30.0 °F 29% 30.24 in 10.0 mi SSW 9.2 mph - N/A   Clear
4:53 PM 61.0 °F - 28.0 °F 29% 30.25 in 10.0 mi South 4.6 mph - N/A   Scattered Clouds
5:53 PM 57.0 °F - 27.0 °F 32% 30.26 in 10.0 mi SSE 5.8 mph - N/A   Partly Cloudy
6:53 PM 57.0 °F - 25.0 °F 29% 30.27 in 10.0 mi SSE 5.8 mph - N/A   Clear
7:15 PM 55.4 °F - 26.6 °F 33% 30.27 in 2.0 mi SSE 6.9 mph - N/A   Haze
7:22 PM 53.6 °F - 26.6 °F 35% 30.27 in 10.0 mi SSE 6.9 mph - N/A   Clear
7:53 PM 55.9 °F - 26.1 °F 32% 30.27 in 10.0 mi SSE 8.1 mph - N/A   Clear
8:53 PM 55.9 °F - 28.0 °F 34% 30.27 in 10.0 mi SSE 6.9 mph - N/A   Clear
9:53 PM 55.0 °F - 30.0 °F 38% 30.27 in 10.0 mi SSE 5.8 mph - N/A   Overcast
10:53 PM 54.0 °F - 32.0 °F 43% 30.26 in 10.0 mi SSE 6.9 mph - N/A   Mostly Cloudy
11:53 PM 55.0 °F - 35.1 °F 47% 30.25 in 10.0 mi SSE 6.9 mph - N/A   Scattered Clouds